When you browse on this site, cookies collect data to enhance your experience and personalize the content and advertising you see.
Visit our Privacy Policy to learn more. By continuing to use the site, you agree to this use of cookies and data.
  • In Latvia
  • List of Countries
  • For 7 days
  • Water Temperature
  • Satellite Maps
  • Weather Map
  • Weather Widgets
  • user-avatar
    Login

    Hourly Weather Ondjiwa

    Today, 21 January, Monday

    Time Temperature Precipitation Wind Pressure Humidity
    00:00 +25°C° 0.5 mm 2 mps 668 mmHg 74%
    01:00 +24°C° 0 mm 1 mps 668 mmHg 78%
    02:00 +24°C° 0 mm 1 mps 668 mmHg 79%
    03:00 +24°C° 0 mm 1 mps 668 mmHg 80%
    04:00 +24°C° 0 mm 1 mps 668 mmHg 80%
    05:00 +24°C° 0 mm 1 mps 668 mmHg 79%
    06:00 +23°C° 0 mm 0 mps 669 mmHg 77%
    07:00 +23°C° 0 mm 0 mps 669 mmHg 75%
    08:00 +27°C° 0.2 mm 1 mps 669 mmHg 68%
    09:00 +28°C° 0.2 mm 2 mps 670 mmHg 60%
    10:00 +30°C° 0.2 mm 3 mps 670 mmHg 52%
    11:00 +30°C° 0 mm 3 mps 670 mmHg 50%
    12:00 +31°C° 0 mm 3 mps 669 mmHg 49%
    13:00 +31°C° 0 mm 3 mps 669 mmHg 47%
    14:00 +33°C° 0 mm 3 mps 668 mmHg 46%
    15:00 +33°C° 0 mm 3 mps 668 mmHg 45%
    16:00 +32°C° 0 mm 2 mps 667 mmHg 44%
    17:00 +31°C° 0 mm 2 mps 667 mmHg 47%
    18:00 +30°C° 0 mm 1 mps 667 mmHg 50%
    19:00 +29°C° 0 mm 1 mps 667 mmHg 53%
    20:00 +26°C° 0 mm 0 mps 667 mmHg 55%
    21:00 +26°C° 0 mm 0 mps 667 mmHg 57%
    22:00 +25°C° 0 mm 0 mps 667 mmHg 58%
    23:00 +25°C° 0 mm 0 mps 667 mmHg 59%

    Tomorrow, 22 January, Tuesday

    Time Temperature Precipitation Wind Pressure Humidity
    00:00 +24°C° 0 mm 0 mps 667 mmHg 60%
    01:00 +24°C° 0 mm 0 mps 667 mmHg 61%
    02:00 +25°C° 0.3 mm 1 mps 667 mmHg 65%
    03:00 +25°C° 0.3 mm 1 mps 667 mmHg 69%
    04:00 +24°C° 0.3 mm 2 mps 667 mmHg 73%
    05:00 +24°C° 0.9 mm 2 mps 667 mmHg 72%
    06:00 +25°C° 0.9 mm 2 mps 668 mmHg 71%
    07:00 +25°C° 0.9 mm 2 mps 668 mmHg 70%
    08:00 +27°C° 0 mm 2 mps 668 mmHg 61%
    09:00 +29°C° 0 mm 3 mps 669 mmHg 52%
    10:00 +33°C° 0 mm 3 mps 669 mmHg 44%
    11:00 +33°C° 0 mm 3 mps 669 mmHg 42%
    12:00 +34°C° 0 mm 3 mps 668 mmHg 40%
    13:00 +34°C° 0 mm 3 mps 668 mmHg 38%
    14:00 +34°C° 0 mm 2 mps 667 mmHg 38%
    15:00 +34°C° 0 mm 2 mps 667 mmHg 39%
    16:00 +33°C° 0 mm 1 mps 666 mmHg 39%
    17:00 +32°C° 0 mm 1 mps 666 mmHg 41%
    18:00 +31°C° 0 mm 1 mps 666 mmHg 43%
    19:00 +30°C° 0 mm 1 mps 666 mmHg 45%
    20:00 +29°C° 0.4 mm 2 mps 666 mmHg 52%
    21:00 +27°C° 0.4 mm 2 mps 667 mmHg 60%
    22:00 +26°C° 0.4 mm 3 mps 667 mmHg 67%
    23:00 +26°C° 0 mm 3 mps 667 mmHg 68%

    Day after tomorrow, 23 January, Wednesday

    Time Temperature Precipitation Wind Pressure Humidity
    00:00 +26°C° 0 mm 4 mps 667 mmHg 70%
    01:00 +25°C° 0 mm 4 mps 667 mmHg 71%
    02:00 +25°C° 0 mm 3 mps 667 mmHg 72%
    03:00 +24°C° 0 mm 3 mps 666 mmHg 73%
    04:00 +24°C° 0 mm 3 mps 666 mmHg 74%
    05:00 +24°C° 0 mm 3 mps 666 mmHg 70%
    06:00 +24°C° 0 mm 3 mps 667 mmHg 65%
    07:00 +25°C° 0 mm 3 mps 667 mmHg 61%
    08:00 +27°C° 0 mm 3 mps 668 mmHg 51%
    09:00 +29°C° 0 mm 4 mps 668 mmHg 40%
    10:00 +33°C° 0 mm 4 mps 668 mmHg 30%
    11:00 +34°C° 0 mm 4 mps 668 mmHg 27%
    12:00 +35°C° 0 mm 4 mps 668 mmHg 24%
    13:00 +37°C° 0 mm 4 mps 667 mmHg 20%
    14:00 +36°C° 0 mm 4 mps 667 mmHg 21%
    15:00 +36°C° 0 mm 3 mps 666 mmHg 22%
    16:00 +36°C° 0 mm 3 mps 665 mmHg 22%
    17:00 +34°C° 0 mm 2 mps 665 mmHg 24%
    18:00 +32°C° 0 mm 2 mps 665 mmHg 27%
    19:00 +31°C° 0 mm 1 mps 665 mmHg 29%
    20:00 +29°C° 0 mm 1 mps 665 mmHg 33%
    21:00 +28°C° 0 mm 2 mps 666 mmHg 36%
    22:00 +27°C° 0 mm 2 mps 666 mmHg 40%
    23:00 +26°C° 0 mm 2 mps 666 mmHg 44%

    24 January, Thursday

    Time Temperature Precipitation Wind Pressure Humidity
    00:00 +26°C° 0 mm 2 mps 665 mmHg 47%
    01:00 +25°C° 0 mm 3 mps 665 mmHg 50%
    02:00 +24°C° 0 mm 2 mps 665 mmHg 51%
    03:00 +24°C° 0 mm 2 mps 665 mmHg 53%
    04:00 +23°C° 0 mm 1 mps 665 mmHg 54%
    05:00 +24°C° 0 mm 1 mps 665 mmHg 51%
    06:00 +24°C° 0 mm 1 mps 666 mmHg 49%
    07:00 +25°C° 0 mm 1 mps 666 mmHg 46%
    08:00 +27°C° 0 mm 1 mps 667 mmHg 39%
    09:00 +30°C° 0 mm 1 mps 667 mmHg 32%
    10:00 +33°C° 0 mm 1 mps 668 mmHg 24%
    11:00 +35°C° 0 mm 1 mps 668 mmHg 22%
    12:00 +37°C° 0 mm 1 mps 667 mmHg 19%
    13:00 +37°C° 0 mm 0 mps 667 mmHg 17%
    14:00 +39°C° 0 mm 1 mps 666 mmHg 18%
    15:00 +37°C° 0 mm 1 mps 665 mmHg 19%
    16:00 +36°C° 0 mm 1 mps 664 mmHg 21%
    17:00 +35°C° 0 mm 1 mps 665 mmHg 23%
    18:00 +33°C° 0 mm 1 mps 665 mmHg 25%
    19:00 +32°C° 0 mm 1 mps 665 mmHg 27%
    20:00 +31°C° 0 mm 1 mps 665 mmHg 29%
    21:00 +31°C° 0 mm 2 mps 665 mmHg 31%
    22:00 +30°C° 0 mm 2 mps 666 mmHg 32%
    23:00 +29°C° 0 mm 2 mps 666 mmHg 34%

    25 January, Friday

    Time Temperature Precipitation Wind Pressure Humidity
    00:00 +28°C° 0 mm 2 mps 665 mmHg 35%
    01:00 +28°C° 0 mm 2 mps 665 mmHg 36%
    02:00 +27°C° 0 mm 3 mps 665 mmHg 38%
    03:00 +26°C° 0 mm 3 mps 665 mmHg 40%
    04:00 +25°C° 0 mm 3 mps 665 mmHg 42%
    05:00 +26°C° 0 mm 3 mps 665 mmHg 41%
    06:00 +26°C° 0 mm 2 mps 666 mmHg 41%
    07:00 +26°C° 0 mm 2 mps 666 mmHg 40%
    08:00 +29°C° 0 mm 2 mps 667 mmHg 35%
    09:00 +32°C° 0 mm 1 mps 668 mmHg 30%
    10:00 +35°C° 0 mm 1 mps 669 mmHg 24%
    11:00 +36°C° 0 mm 1 mps 668 mmHg 23%
    12:00 +37°C° 0 mm 2 mps 668 mmHg 22%
    13:00 +38°C° 0 mm 2 mps 667 mmHg 21%
    14:00 +38°C° 0 mm 2 mps 667 mmHg 20%
    15:00 +38°C° 0 mm 2 mps 666 mmHg 20%
    16:00 +37°C° 0 mm 2 mps 666 mmHg 20%
    17:00 +36°C° 0 mm 2 mps 666 mmHg 22%
    18:00 +34°C° 0 mm 2 mps 666 mmHg 25%
    19:00 +32°C° 0 mm 2 mps 666 mmHg 28%
    20:00 +31°C° 0 mm 2 mps 666 mmHg 30%
    21:00 +30°C° 0 mm 2 mps 666 mmHg 32%
    22:00 +29°C° 0 mm 2 mps 667 mmHg 34%
    23:00 +29°C° 0 mm 2 mps 667 mmHg 35%

    26 January, Saturday

    Time Temperature Precipitation Wind Pressure Humidity
    00:00 +29°C° 0 mm 2 mps 666 mmHg 36%
    01:00 +28°C° 0 mm 2 mps 666 mmHg 38%
    02:00 +28°C° 0 mm 2 mps 666 mmHg 40%
    03:00 +27°C° 0 mm 2 mps 666 mmHg 43%
    04:00 +26°C° 0 mm 3 mps 666 mmHg 45%
    05:00 +27°C° 0 mm 2 mps 666 mmHg 45%
    06:00 +27°C° 0 mm 2 mps 667 mmHg 44%
    07:00 +28°C° 0 mm 2 mps 668 mmHg 44%
    08:00 +27°C° 0 mm 2 mps 668 mmHg 46%
    09:00 +27°C° 0 mm 2 mps 668 mmHg 47%
    10:00 +27°C° 0 mm 2 mps 668 mmHg 49%
    11:00 +29°C° 0 mm 2 mps 668 mmHg 44%
    12:00 +31°C° 0 mm 2 mps 668 mmHg 39%
    13:00 +34°C° 0 mm 2 mps 668 mmHg 33%
    14:00 +34°C° 0 mm 2 mps 667 mmHg 33%
    15:00 +34°C° 0 mm 2 mps 667 mmHg 33%
    16:00 +32°C° 0 mm 2 mps 666 mmHg 34%
    17:00 +31°C° 0 mm 1 mps 666 mmHg 36%
    18:00 +30°C° 0 mm 1 mps 666 mmHg 38%
    19:00 +29°C° 0 mm 1 mps 666 mmHg 40%
    20:00 +29°C° 0 mm 1 mps 666 mmHg 40%
    21:00 +28°C° 0 mm 1 mps 667 mmHg 40%
    22:00 +28°C° 0 mm 1 mps 667 mmHg 40%
    23:00 +27°C° 0.2 mm 1 mps 667 mmHg 42%
    Show more